Regional Weather Roundup
Issued by NWS Green Bay, WI

Home | Current Version | Previous Version | Graphics & Text | Print | Product List | Glossary Off
Versions: 1 2 3 4 5 6 7 8 9 10 11 12 13 14 15 16 17 18 19 20 21 22 23 24 25 26 27 28 29 30 31 32 33 34 35 36 37 38 39 40 41 42 43 44 45 46 47 48 49 50

000
ASUS43 KGRB 270700
RWRGRB

NORTH-CENTRAL AND NORTHEAST WISCONSIN REGIONAL WEATHER ROUNDUP
NATIONAL WEATHER SERVICE GREEN BAY WI
200 AM CDT TUE SEP 27 2016

WIZ005-009-010>012-018-019-270800-
NORTH CENTRAL WISCONSIN

CITY           SKY/WX    TMP DP  RH WIND       PRES   REMARKS
IRONWOOD       NOT AVBL
MANITOWISH WTR NOT AVBL
ARBOR VITAE    NOT AVBL
EAGLE RIVER    NOT AVBL
LAND O LAKES   NOT AVBL
RHINELANDER    CLOUDY    50  45  83 W15G24    29.66F
PHILLIPS       NOT AVBL
ANTIGO         NOT AVBL
TOMAHAWK       NOT AVBL
MERRILL        NOT AVBL
$$

WIZ013-073-270800-
NORTHEAST WISCONSIN

CITY           SKY/WX    TMP DP  RH WIND       PRES   REMARKS
IRON MOUNTAIN  CLOUDY    51  44  77 W12       29.59S
MARINETTE      CLOUDY    53  43  68 W7        29.65F
$$

WIZ017-030-035>037-045-270800-
CENTRAL WISCONSIN

CITY           SKY/WX    TMP DP  RH WIND       PRES   REMARKS
MEDFORD        NOT AVBL
WAUSAU         CLOUDY    52  41  66 W12       29.69F
MOSINEE        NOT AVBL
MARSHFIELD     MOCLDY    50  39  66 W10       29.74S
WISC RAPIDS    PTCLDY    50  40  68 W9        29.77S
STEVENS POINT  NOT AVBL
WAUPACA        NOT AVBL
SHAWANO        NOT AVBL
CLINTONVILLE   NOT AVBL
WAUTOMA        CLEAR     48  39  71 W5        29.77F
$$

WIZ038-039-048-051-270800-
FOX VALLEY

CITY           SKY/WX    TMP DP  RH WIND       PRES   REMARKS
NWS GREEN BAY  CLOUDY    53  43  68 SW9       29.71F
APPLETON       NOT AVBL
OSHKOSH        CLOUDY    54  38  54 VRB7      29.75S
FOND DU LAC    PTCLDY    52  39  61 SW9       29.77F
$$

WIZ022-050-052-270800-
EAST CENTRAL WISCONSIN

CITY           SKY/WX    TMP DP  RH WIND       PRES   REMARKS
EPHRAIM        NOT AVBL
WASHINGTON ISL NOT AVBL
STURGEON BAY   CLOUDY    56  43  61 W15       29.68S
MANITOWOC      NOT AVBL
SHEBOYGAN      CLOUDY    52  40  63 SW12      29.76F
$$

LMZ563-521-522-541>543-270800-
LAKESHORE

STATION/POSITION TIME  TEMP    WIND        PRES    VSBY  WAVE
                       AIR SEA DIR/SP/G                  HT/PER
                 (UTC) (F)     (DEG/KT/KT) (MB)    (MI)  (FT/S)
SHEBOYGAN LKSHOR 0600   55     240/ 12/ 15 1007.7F
KEWAUNEE LKSHORE 0600   56     240/  8/ 12 1005.7F
NORTHPORT PIER   0600   57     280/  7/ 20 1003.7F
N MID LAKE BUOY  0550   58 66  250/ 25/ 31 1002.2F         7/ 6
CHAMBERS ISLAND  0600   56     220/  7/ 18 1003.7F
MENOMINEE LKSHOR 0600   56     240/ 14/ 17 1003.7F
$$




USA.gov is the U.S. government's official web portal to all federal, state and local government web resources and services.